TimeCDT,TemperatureF,Dew PointF,Humidity,Sea Level PressureIn,VisibilityMPH,Wind Direction,Wind SpeedMPH,Gust SpeedMPH,PrecipitationIn,Events,Conditions,WindDirDegrees,DateUTC
12:15 AM,48.2,32.0,54,29.87,10.0,South,6.9,-,N/A,,Clear,170,2012-10-03 05:15:00
12:35 AM,48.2,33.8,58,29.86,10.0,SSE,8.1,-,N/A,,Clear,160,2012-10-03 05:35:00
12:55 AM,48.2,33.8,58,29.86,10.0,South,9.2,-,N/A,,Clear,170,2012-10-03 05:55:00
1:15 AM,48.2,32.0,54,29.86,10.0,South,6.9,-,N/A,,Clear,170,2012-10-03 06:15:00
1:35 AM,48.2,33.8,58,29.86,10.0,South,6.9,-,N/A,,Clear,190,2012-10-03 06:35:00
1:55 AM,48.2,33.8,58,29.87,10.0,SSW,8.1,-,N/A,,Clear,200,2012-10-03 06:55:00
2:15 AM,46.4,32.0,57,29.87,10.0,South,8.1,-,N/A,,Clear,180,2012-10-03 07:15:00
2:35 AM,46.4,32.0,57,29.87,10.0,South,8.1,-,N/A,,Clear,170,2012-10-03 07:35:00
2:55 AM,46.4,32.0,57,29.86,10.0,South,5.8,-,N/A,,Clear,170,2012-10-03 07:55:00
3:15 AM,46.4,33.8,62,29.86,10.0,SSE,6.9,-,N/A,,Clear,160,2012-10-03 08:15:00
3:35 AM,46.4,32.0,57,29.86,10.0,SSE,5.8,-,N/A,,Clear,160,2012-10-03 08:35:00
3:55 AM,44.6,33.8,66,29.86,10.0,South,5.8,-,N/A,,Clear,180,2012-10-03 08:55:00
4:15 AM,44.6,32.0,61,29.86,10.0,South,5.8,-,N/A,,Clear,180,2012-10-03 09:15:00
4:35 AM,44.6,32.0,61,29.85,10.0,South,8.1,-,N/A,,Clear,180,2012-10-03 09:35:00
4:55 AM,42.8,32.0,66,29.85,10.0,South,6.9,-,N/A,,Clear,170,2012-10-03 09:55:00
5:15 AM,44.6,33.8,66,29.85,10.0,South,6.9,-,N/A,,Clear,170,2012-10-03 10:15:00
5:35 AM,42.8,33.8,70,29.85,10.0,South,8.1,-,N/A,,Clear,170,2012-10-03 10:35:00
5:55 AM,42.8,33.8,70,29.84,10.0,South,8.1,-,N/A,,Clear,180,2012-10-03 10:55:00
6:15 AM,44.6,33.8,66,29.84,10.0,South,8.1,-,N/A,,Clear,180,2012-10-03 11:15:00
6:35 AM,44.6,33.8,66,29.84,10.0,South,9.2,-,N/A,,Clear,170,2012-10-03 11:35:00
6:55 AM,44.6,33.8,66,29.84,10.0,South,8.1,-,N/A,,Clear,170,2012-10-03 11:55:00
7:15 AM,44.6,33.8,66,29.84,10.0,South,8.1,-,N/A,,Clear,190,2012-10-03 12:15:00
7:35 AM,46.4,35.6,66,29.83,10.0,South,9.2,-,N/A,,Clear,180,2012-10-03 12:35:00
7:55 AM,48.2,35.6,62,29.83,10.0,South,12.7,-,N/A,,Clear,170,2012-10-03 12:55:00
8:15 AM,51.8,35.6,54,29.82,10.0,South,13.8,-,N/A,,Clear,170,2012-10-03 13:15:00
8:35 AM,53.6,35.6,51,29.82,10.0,South,12.7,-,N/A,,Clear,180,2012-10-03 13:35:00
8:55 AM,55.4,37.4,51,29.81,10.0,South,12.7,-,N/A,,Clear,180,2012-10-03 13:55:00
9:15 AM,57.2,37.4,48,29.81,10.0,South,12.7,-,N/A,,Clear,190,2012-10-03 14:15:00
9:35 AM,59.0,39.2,48,29.81,10.0,South,18.4,-,N/A,,Clear,190,2012-10-03 14:35:00
9:55 AM,60.8,39.2,45,29.80,10.0,South,21.9,-,N/A,,Clear,190,2012-10-03 14:55:00
10:15 AM,62.6,42.8,48,29.80,10.0,South,20.7,25.3,N/A,,Clear,190,2012-10-03 15:15:00
10:35 AM,64.4,42.8,45,29.80,10.0,SSW,19.6,-,N/A,,Clear,200,2012-10-03 15:35:00
10:55 AM,66.2,42.8,43,29.79,10.0,South,18.4,-,N/A,,Clear,190,2012-10-03 15:55:00
11:15 AM,69.8,42.8,38,29.79,10.0,South,17.3,-,N/A,,Clear,180,2012-10-03 16:15:00
11:35 AM,71.6,44.6,38,29.80,10.0,South,16.1,-,N/A,,Clear,180,2012-10-03 16:35:00
11:55 AM,73.4,44.6,36,29.79,10.0,South,16.1,-,N/A,,Clear,180,2012-10-03 16:55:00
12:15 PM,73.4,44.6,36,29.78,10.0,South,17.3,21.9,N/A,,Clear,180,2012-10-03 17:15:00
12:35 PM,75.2,44.6,34,29.78,10.0,South,18.4,23.0,N/A,,Clear,180,2012-10-03 17:35:00
12:55 PM,77.0,44.6,32,29.77,10.0,South,19.6,26.5,N/A,,Clear,180,2012-10-03 17:55:00
1:15 PM,78.8,46.4,32,29.76,10.0,South,21.9,25.3,N/A,,Clear,180,2012-10-03 18:15:00
1:35 PM,80.6,46.4,30,29.75,10.0,South,21.9,28.8,N/A,,Clear,180,2012-10-03 18:35:00
1:55 PM,80.6,46.4,30,29.74,10.0,South,20.7,26.5,N/A,,Clear,170,2012-10-03 18:55:00
2:15 PM,82.4,46.4,28,29.73,10.0,SSW,20.7,31.1,N/A,,Clear,200,2012-10-03 19:15:00
2:35 PM,82.4,46.4,28,29.73,10.0,South,21.9,29.9,N/A,,Clear,190,2012-10-03 19:35:00
2:55 PM,84.2,46.4,27,29.73,10.0,South,20.7,29.9,N/A,,Clear,180,2012-10-03 19:55:00
3:15 PM,84.2,46.4,27,29.72,10.0,SSW,23.0,28.8,N/A,,Clear,200,2012-10-03 20:15:00
3:35 PM,84.2,46.4,27,29.72,10.0,SSW,19.6,25.3,N/A,,Clear,210,2012-10-03 20:35:00
3:55 PM,86.0,46.4,25,29.71,10.0,SSW,21.9,29.9,N/A,,Clear,200,2012-10-03 20:55:00
4:15 PM,86.0,46.4,25,29.71,10.0,South,24.2,28.8,N/A,,Clear,180,2012-10-03 21:15:00
4:35 PM,82.4,44.6,26,29.71,10.0,SSW,20.7,24.2,N/A,,Clear,200,2012-10-03 21:35:00
4:55 PM,84.2,44.6,25,29.71,10.0,South,18.4,26.5,N/A,,Clear,190,2012-10-03 21:55:00
5:15 PM,84.2,44.6,25,29.72,10.0,South,17.3,25.3,N/A,,Clear,190,2012-10-03 22:15:00
5:35 PM,84.2,44.6,25,29.72,10.0,South,19.6,23.0,N/A,,Clear,190,2012-10-03 22:35:00
5:55 PM,84.2,46.4,27,29.73,10.0,South,12.7,-,N/A,,Clear,180,2012-10-03 22:55:00
6:15 PM,82.4,46.4,28,29.74,10.0,South,15.0,-,N/A,,Clear,180,2012-10-03 23:15:00
6:35 PM,80.6,46.4,30,29.74,10.0,South,11.5,-,N/A,,Clear,180,2012-10-03 23:35:00
6:55 PM,77.0,46.4,34,29.76,10.0,South,8.1,-,N/A,,Clear,190,2012-10-03 23:55:00
7:15 PM,77.0,46.4,34,29.77,10.0,South,8.1,-,N/A,,Mostly Cloudy,170,2012-10-04 00:15:00
7:35 PM,75.2,41.0,29,29.81,9.0,North,28.8,38.0,N/A,,Mostly Cloudy,350,2012-10-04 00:35:00
7:55 PM,71.6,41.0,33,29.85,10.0,NNW,15.0,-,N/A,,Overcast,340,2012-10-04 00:55:00
8:15 PM,69.8,37.4,31,29.89,10.0,NNW,18.4,-,N/A,Thunderstorm,Scattered Clouds,340,2012-10-04 01:15:00
8:35 PM,68.0,37.4,33,29.90,10.0,NNW,23.0,26.5,N/A,,Clear,340,2012-10-04 01:35:00
8:55 PM,66.2,39.2,37,29.91,10.0,North,25.3,29.9,N/A,,Clear,350,2012-10-04 01:55:00
9:15 PM,64.4,39.2,40,29.93,10.0,NNW,27.6,32.2,N/A,,Clear,340,2012-10-04 02:15:00
9:35 PM,62.6,39.2,42,29.96,10.0,NNW,25.3,33.4,N/A,,Clear,340,2012-10-04 02:35:00
9:55 PM,59.0,37.4,45,29.98,10.0,NNW,25.3,34.5,N/A,,Clear,340,2012-10-04 02:55:00
10:15 PM,57.2,37.4,48,30.00,10.0,NNW,27.6,36.8,N/A,,Clear,340,2012-10-04 03:15:00
10:35 PM,55.4,37.4,51,30.02,10.0,NNW,24.2,33.4,N/A,,Mostly Cloudy,340,2012-10-04 03:35:00
10:55 PM,55.4,37.4,51,30.03,10.0,NNW,24.2,32.2,N/A,,Scattered Clouds,330,2012-10-04 03:55:00
11:15 PM,53.6,37.4,54,30.06,10.0,NNW,28.8,36.8,N/A,,Mostly Cloudy,330,2012-10-04 04:15:00
11:35 PM,53.6,35.6,51,30.09,10.0,NW,28.8,33.4,N/A,,Overcast,320,2012-10-04 04:35:00
11:55 PM,51.8,35.6,54,30.12,10.0,NW,26.5,40.3,N/A,,Overcast,320,2012-10-04 04:55:00